Location: Grand Mazuras
(45.9128°N, 1.7636°E)
Time: 20:40:25
(UTC+00:00)

N. Korean satellite - Pass Details

Date: 04 October 2021
Orbit: 450 x 495 km, 97.3° (Epoch: 25 October)

Event Time Altitude Azimuth Distance (km) Brightness Sun altitude
Rises 04:00:48 0° 34° (NE) 2,562 11.0 -20.5°
Reaches altitude 10° 04:04:09 10° 68° (ENE) 1,684 10.5 -20.0°
Maximum altitude 04:05:28 12° 90° (E) 1,584 10.2 -19.8°
Drops below altitude 10° 04:06:47 10° 111° (ESE) 1,685 10.1 -19.5°
Sets 04:10:08 0° 145° (SE) 2,565 10.5 -19.0°
